Madison, SD

4:12 AM CST on January 18, 2018 (GMT -0600)
Madison Municipal

Weather History for KMDS - November, 2011

Change the Weather History Date:

Tuesday, November 22, 2011

  Actual Average Record
Temperature  
Mean Temperature 38 °F -  
Max Temperature 44 °F 37 °F 50 °F (2012)
Min Temperature 32 °F 19 °F 1 °F (2013)
Degree Days  
Heating Degree Days 27    
Moisture  
Dew Point 34 °F    
Average Humidity 94    
Maximum Humidity 100    
Minimum Humidity 71    
Precipitation  
Precipitation 0.00 in - - ()
Sea Level Pressure  
Sea Level Pressure 30.02 in    
Wind  
Wind Speed 10 mph (South)    
Max Wind Speed 15 mph    
Max Gust Speed 21 mph    
Visibility 7 miles    
Events      
Averages and records for this station are not official NWS values.
T = Trace of Precipitation, MM = Missing Value Source: NWS Daily Summary

Daily Weather History Graph

Daily Weather History Graph

Search for Another Location

Airport or City:

Trip Planner

Search our weather history database for the weather conditions in past years. The results will help you decide how hot, cold, wet, or windy it might be!

Date:

Astronomy

Nov. 22, 2011 Rise Set
Actual Time 7:32 AM CST 4:56 PM CST
Civil Twilight 7:00 AM CST 5:28 PM CST
Nautical Twilight 6:24 AM CST 6:03 PM CST
Astronomical Twilight 5:50 AM CST 6:37 PM CST
Moon 4:19 AM CST (11/22) 2:59 PM CST (11/22)
Length of Visible Light 10h 27m
Length of Day
9h 24m
Waning Crescent, 9% of the Moon is Illuminated
Nov 22
Waning Crescent
Nov 25
New
Dec 2
First Quarter
Dec 10
Full
Dec 17
Last Quarter

Hourly Weather History & Observations

Time (CST) Temp. Windchill Dew Point Humidity Pressure Visibility Wind Dir Wind Speed Gust Speed Precip Events Conditions
12:10 AM 32.0 °F 21.6 °F 32.0 °F 100% 30.08 in 6.0 mi South 15.0 mph 20.7 mph N/A   Overcast
12:30 AM 32.0 °F 21.6 °F 32.0 °F 100% 30.08 in 6.0 mi South 15.0 mph - N/A   Overcast
12:50 AM 32.0 °F 23.0 °F 32.0 °F 100% 30.08 in 5.0 mi South 11.5 mph - N/A   Overcast
1:10 AM 32.0 °F 23.6 °F 32.0 °F 100% 30.08 in 5.0 mi South 10.4 mph - N/A   Overcast
1:30 AM 32.0 °F 24.2 °F 32.0 °F 100% 30.07 in 5.0 mi South 9.2 mph - N/A   Overcast
1:50 AM 32.0 °F 24.2 °F 32.0 °F 100% 30.07 in 5.0 mi South 9.2 mph - N/A   Overcast
2:10 AM 32.0 °F 25.6 °F 32.0 °F 100% 30.07 in 5.0 mi SSE 6.9 mph - N/A   Overcast
2:30 AM 32.0 °F 23.6 °F 32.0 °F 100% 30.06 in 5.0 mi South 10.4 mph - N/A   Overcast
2:50 AM 32.0 °F 24.8 °F 32.0 °F 100% 30.06 in 5.0 mi SSE 8.1 mph - N/A   Overcast
3:10 AM 32.0 °F 24.2 °F 32.0 °F 100% 30.06 in 5.0 mi SSE 9.2 mph - N/A   Overcast
3:30 AM 32.0 °F 25.6 °F 32.0 °F 100% 30.06 in 5.0 mi SSE 6.9 mph - N/A   Overcast
3:50 AM 32.0 °F 25.6 °F 32.0 °F 100% 30.06 in 5.0 mi South 6.9 mph - N/A   Overcast
4:10 AM 32.0 °F 24.8 °F 32.0 °F 100% 30.05 in 5.0 mi South 8.1 mph - N/A   Overcast
4:30 AM 32.0 °F 24.8 °F 32.0 °F 100% 30.04 in 5.0 mi South 8.1 mph - N/A   Overcast
4:50 AM 32.0 °F 24.8 °F 32.0 °F 100% 30.04 in 4.0 mi South 8.1 mph - N/A   Overcast
5:10 AM 32.0 °F 24.2 °F 32.0 °F 100% 30.03 in 4.0 mi South 9.2 mph - N/A   Overcast
5:50 AM 32.0 °F 25.6 °F 32.0 °F 100% 30.03 in 3.0 mi South 6.9 mph - N/A   Overcast
6:10 AM 32.0 °F 24.8 °F 32.0 °F 100% 30.02 in 3.0 mi South 8.1 mph - N/A   Overcast
6:30 AM 32.0 °F 24.8 °F 32.0 °F 100% 30.02 in 3.0 mi South 8.1 mph - N/A   Overcast
6:50 AM 32.0 °F 26.4 °F 32.0 °F 100% 30.02 in 3.0 mi South 5.8 mph - N/A   Overcast
7:10 AM 32.0 °F 27.5 °F 32.0 °F 100% 30.02 in 3.0 mi South 4.6 mph - N/A   Overcast
7:30 AM 32.0 °F 26.4 °F 32.0 °F 100% 30.02 in 3.0 mi South 5.8 mph - N/A   Overcast
7:50 AM 32.0 °F 26.4 °F 32.0 °F 100% 30.03 in 2.5 mi South 5.8 mph - N/A   Overcast
8:10 AM 32.0 °F 26.4 °F 32.0 °F 100% 30.02 in 2.0 mi South 5.8 mph - N/A   Overcast
8:30 AM 32.0 °F 24.8 °F 32.0 °F 100% 30.01 in 2.0 mi South 8.1 mph - N/A   Overcast
8:50 AM 32.0 °F 26.4 °F 32.0 °F 100% 30.03 in 2.0 mi South 5.8 mph - N/A   Overcast
9:10 AM 33.8 °F 26.4 °F 33.8 °F 100% 30.02 in 2.5 mi South 9.2 mph - N/A   Overcast
9:30 AM 33.8 °F 25.8 °F 33.8 °F 100% 30.01 in 3.0 mi South 10.4 mph - N/A   Overcast
9:50 AM 35.6 °F 27.1 °F 35.6 °F 100% 30.01 in 5.0 mi South 12.7 mph - N/A   Overcast
10:10 AM 35.6 °F 26.6 °F 35.6 °F 100% 30.01 in 10.0 mi South 13.8 mph - N/A   Overcast
10:30 AM 35.6 °F 26.2 °F 35.6 °F 100% 30.01 in 10.0 mi South 15.0 mph - N/A   Overcast
10:50 AM 37.4 °F 29.8 °F 37.4 °F 100% 30.01 in 10.0 mi South 11.5 mph - N/A   Overcast
11:30 AM 39.2 °F 33.0 °F 39.2 °F 100% 30.01 in 10.0 mi SSE 9.2 mph - N/A   Overcast
11:50 AM 39.2 °F 32.5 °F 39.2 °F 100% 30.00 in 10.0 mi South 10.4 mph - N/A   Overcast
12:10 PM 39.2 °F 33.6 °F 39.2 °F 100% 30.00 in 10.0 mi South 8.1 mph - N/A   Mostly Cloudy
12:30 PM 41.0 °F 34.3 °F 41.0 °F 100% 29.99 in 10.0 mi South 11.5 mph - N/A   Mostly Cloudy
1:30 PM 42.8 °F 37.5 °F 37.4 °F 81% 29.98 in 10.0 mi South 9.2 mph - N/A   Mostly Cloudy
1:50 PM 42.8 °F 38.0 °F 37.4 °F 81% 29.98 in 10.0 mi SSW 8.1 mph - N/A   Partly Cloudy
2:10 PM 44.6 °F 39.7 °F 37.4 °F 76% 29.97 in 10.0 mi SSW 9.2 mph - N/A   Clear
2:30 PM 44.6 °F 39.7 °F 37.4 °F 76% 29.98 in 10.0 mi SSW 9.2 mph - N/A   Clear
2:50 PM 44.6 °F 40.2 °F 35.6 °F 71% 29.97 in 10.0 mi SW 8.1 mph - N/A   Clear
3:10 PM 44.6 °F 40.7 °F 35.6 °F 71% 29.98 in 10.0 mi WSW 6.9 mph - N/A   Clear
3:30 PM 44.6 °F 42.2 °F 35.6 °F 71% 29.98 in 10.0 mi WSW 4.6 mph - N/A   Clear
3:50 PM 44.6 °F 43.1 °F 35.6 °F 71% 29.99 in 10.0 mi SW 3.5 mph - N/A   Clear
4:10 PM 44.6 °F 42.2 °F 35.6 °F 71% 30.00 in 10.0 mi South 4.6 mph - N/A   Clear
4:30 PM 42.8 °F 39.3 °F 35.6 °F 76% 30.00 in 10.0 mi South 5.8 mph - N/A   Clear
4:50 PM 41.0 °F 39.0 °F 35.6 °F 81% 30.00 in 10.0 mi South 3.5 mph - N/A   Clear
5:10 PM 37.4 °F 32.8 °F 35.6 °F 93% 30.00 in 10.0 mi South 5.8 mph - N/A   Clear
5:30 PM 37.4 °F 33.8 °F 35.6 °F 93% 30.00 in 10.0 mi SSE 4.6 mph - N/A   Clear
5:50 PM 35.6 °F 30.7 °F 35.6 °F 100% 30.00 in 10.0 mi South 5.8 mph - N/A   Clear
6:10 PM 35.6 °F 30.7 °F 35.6 °F 100% 30.00 in 10.0 mi South 5.8 mph - N/A   Clear
6:30 PM 33.8 °F 28.6 °F 33.8 °F 100% 30.01 in 10.0 mi SSE 5.8 mph - N/A   Clear
6:50 PM 35.6 °F 30.7 °F 35.6 °F 100% 30.01 in 10.0 mi SSE 5.8 mph - N/A   Clear
7:10 PM 32.0 °F 26.4 °F 32.0 °F 100% 30.02 in 10.0 mi South 5.8 mph - N/A   Clear
7:30 PM 32.0 °F 26.4 °F 32.0 °F 100% 30.02 in 10.0 mi SSW 5.8 mph - N/A   Clear
7:50 PM 30.2 °F 22.6 °F 30.2 °F 100% 30.02 in 10.0 mi South 8.1 mph - N/A   Clear
8:10 PM 30.2 °F 22.6 °F 30.2 °F 100% 30.03 in 10.0 mi South 8.1 mph - N/A   Clear
8:30 PM 28.4 °F 21.2 °F 28.4 °F 100% 30.04 in 10.0 mi SSW 6.9 mph - N/A   Clear
9:10 PM 30.2 °F 22.6 °F 30.2 °F 100% 30.04 in 10.0 mi SSW 8.1 mph - N/A   Clear
9:30 PM 32.0 °F 24.2 °F 32.0 °F 100% 30.04 in 10.0 mi SSW 9.2 mph - N/A   Clear
9:50 PM 30.2 °F 21.3 °F 30.2 °F 100% 30.04 in 5.0 mi SSW 10.4 mph - N/A   Clear
10:10 PM 30.2 °F 20.8 °F 30.2 °F 100% 30.04 in 5.0 mi SSW 11.5 mph - N/A   Clear
10:30 PM 32.0 °F 23.0 °F 32.0 °F 100% 30.05 in 6.0 mi SSW 11.5 mph - N/A   Clear
10:50 PM 32.0 °F 23.6 °F 32.0 °F 100% 30.04 in 5.0 mi South 10.4 mph - N/A   Clear
11:10 PM 28.4 °F 19.7 °F 28.4 °F 100% 30.04 in 4.0 mi South 9.2 mph - N/A   Clear
11:30 PM 28.4 °F 19.1 °F 28.4 °F 100% 30.04 in 3.0 mi South 10.4 mph - N/A   Clear
11:50 PM 28.4 °F 19.7 °F 28.4 °F 100% 30.04 in 4.0 mi South 9.2 mph - N/A   Clear